| time (UTC) | temp F | wind direction | speed MPH | gust MPH | rain 1hr in | rain 24hr in | rain mn in | humidity % | barometer mb |
| 20260505021516 | 0 | 0.0 | 0.0 | 0.00 | 0.00 | 0.00 | 1012.0 | ||
| 20260505020019 | 0 | 0.0 | 0.0 | 0.00 | 0.00 | 0.00 | 1011.9 | ||
| 20260505014519 | 0 | 0.0 | 0.0 | 0.00 | 0.00 | 0.00 | 1011.7 | ||
| 20260505013021 | 0 | 0.0 | 0.0 | 0.00 | 0.00 | 0.00 | 1011.7 | ||
| 20260505011528 | 0 | 0.0 | 0.0 | 0.00 | 0.00 | 0.00 | 1011.6 | ||
| 20260505010019 | 0 | 0.0 | 0.0 | 0.00 | 0.00 | 0.00 | 1011.4 | ||
| 20260505004531 | 0 | 0.0 | 0.0 | 0.00 | 0.00 | 0.00 | 1011.4 | ||
| 20260505003021 | 0 | 0.0 | 0.0 | 0.00 | 0.00 | 0.00 | 1011.0 | ||
| 20260505001522 | 0 | 0.0 | 0.0 | 0.00 | 0.00 | 0.00 | 1010.9 | ||
| 20260505000030 | 0 | 0.0 | 0.0 | 0.00 | 0.00 | 0.00 | 1010.8 | ||
| 20260504234519 | 69 | 169 | 8.0 | 12.0 | 0.00 | 0.00 | 0.00 | 57 | 1010.7 |
| 20260504233022 | 70 | 182 | 8.0 | 10.0 | 0.00 | 0.00 | 0.00 | 54 | 1010.7 |
| 20260504231512 | 70 | 184 | 9.0 | 16.0 | 0.00 | 0.00 | 0.00 | 54 | 1010.7 |
| 20260504230006 | 70 | 190 | 9.0 | 14.0 | 0.00 | 0.00 | 0.00 | 53 | 1010.9 |
| 20260504224521 | 70 | 188 | 12.0 | 17.0 | 0.00 | 0.00 | 0.00 | 56 | 1010.9 |
| 20260504223023 | 70 | 209 | 11.0 | 19.0 | 0.00 | 0.00 | 0.00 | 56 | 1010.9 |
| 20260504221528 | 70 | 200 | 18.0 | 22.0 | 0.00 | 0.00 | 0.00 | 53 | 1010.8 |
| 20260504220014 | 70 | 187 | 13.0 | 18.0 | 0.00 | 0.00 | 0.00 | 55 | 1010.9 |
| 20260504214504 | 69 | 217 | 15.0 | 17.0 | 0.00 | 0.00 | 0.00 | 55 | 1011.0 |
| 20260504213018 | 70 | 198 | 15.0 | 18.0 | 0.00 | 0.00 | 0.00 | 51 | 1011.0 |
| 20260504211525 | 69 | 200 | 12.0 | 17.0 | 0.00 | 0.00 | 0.00 | 54 | 1011.0 |
| 20260504210015 | 69 | 199 | 13.0 | 19.0 | 0.00 | 0.00 | 0.00 | 57 | 1010.9 |
| 20260504204519 | 69 | 205 | 16.0 | 20.0 | 0.00 | 0.00 | 0.00 | 53 | 1011.0 |
| 20260504203008 | 68 | 227 | 16.0 | 24.0 | 0.00 | 0.00 | 0.00 | 56 | 1011.2 |
| 20260504201531 | 68 | 207 | 17.0 | 28.0 | 0.00 | 0.00 | 0.00 | 53 | 1011.4 |
| 20260504200015 | 68 | 200 | 16.0 | 20.0 | 0.00 | 0.00 | 0.00 | 56 | 1011.4 |
| 20260504194518 | 68 | 221 | 18.0 | 21.0 | 0.00 | 0.00 | 0.00 | 55 | 1011.5 |
| 20260504193019 | 67 | 225 | 15.0 | 20.0 | 0.00 | 0.00 | 0.00 | 55 | 1011.7 |
| 20260504191504 | 67 | 218 | 10.0 | 20.0 | 0.00 | 0.00 | 0.00 | 57 | 1011.9 |
| 20260504190007 | 66 | 229 | 15.0 | 17.0 | 0.00 | 0.00 | 0.00 | 55 | 1012.0 |
| 20260504184514 | 66 | 213 | 13.0 | 18.0 | 0.00 | 0.00 | 0.00 | 56 | 1012.3 |
| 20260504183021 | 66 | 211 | 12.0 | 18.0 | 0.00 | 0.00 | 0.00 | 52 | 1012.5 |
| 20260504181527 | 65 | 214 | 18.0 | 21.0 | 0.00 | 0.00 | 0.00 | 57 | 1012.7 |
| 20260504180007 | 66 | 194 | 15.0 | 21.0 | 0.00 | 0.00 | 0.00 | 53 | 1013.2 |
| 20260504174511 | 66 | 225 | 14.0 | 20.0 | 0.00 | 0.00 | 0.00 | 50 | 1013.4 |
| 20260504173023 | 65 | 205 | 13.0 | 21.0 | 0.00 | 0.00 | 0.00 | 56 | 1013.6 |
| 20260504171523 | 65 | 219 | 13.0 | 17.0 | 0.00 | 0.00 | 0.00 | 57 | 1013.7 |
| 20260504081527 | 0 | 0.0 | 0.0 | 0.00 | 0.00 | 0.00 | 1016.3 | ||
| 20260504044537 | 0 | 0.0 | 0.0 | 0.00 | 0.00 | 0.00 | 1016.1 | ||
| 20260504043034 | 0 | 0.0 | 0.0 | 0.00 | 0.00 | 0.00 | 1016.0 | ||
| 20260504041529 | 0 | 0.0 | 0.0 | 0.00 | 0.00 | 0.00 | 1015.9 | ||
| 20260504040034 | 0 | 0.0 | 0.0 | 0.00 | 0.00 | 0.00 | 1015.7 | ||
| 20260504034538 | 0 | 0.0 | 0.0 | 0.00 | 0.00 | 0.00 | 1015.5 | ||
| 20260504033041 | 0 | 0.0 | 0.0 | 0.00 | 0.00 | 0.00 | 1015.5 | ||
| 20260504031532 | 0 | 0.0 | 0.0 | 0.00 | 0.00 | 0.00 | 1015.3 | ||
| 20260504030030 | 0 | 0.0 | 0.0 | 0.00 | 0.00 | 0.00 | 1015.3 | ||
| 20260504024533 | 0 | 0.0 | 0.0 | 0.00 | 0.00 | 0.00 | 1015.3 | ||
| 20260504023030 | 0 | 0.0 | 0.0 | 0.00 | 0.00 | 0.00 | 1015.2 |